Williams, AZ

12:20 AM MST on January 20, 2018 (GMT -0700)
Williams

Weather History for KCMR - January, 2013

Change the Weather History Date:

Friday, January 25, 2013

  Actual Average (K40G) Record (K40G)
Temperature  
Mean Temperature 44 °F -  
Max Temperature 50 °F 46 °F 51 °F (1998)
Min Temperature 37 °F 33 °F 21 °F (1998)
Degree Days  
Heating Degree Days 22    
Moisture  
Dew Point 39 °F    
Average Humidity 88    
Maximum Humidity 100    
Minimum Humidity 62    
Precipitation  
Precipitation 0.23 in - - ()
Sea Level Pressure  
Sea Level Pressure 30.31 in    
Wind  
Wind Speed 4 mph (SSE)    
Max Wind Speed 9 mph    
Max Gust Speed -    
Visibility 9 miles    
Events      
Averages and records for this station are not official NWS values.
T = Trace of Precipitation, MM = Missing Value Source: NWS Daily Summary

Daily Weather History Graph

Daily Weather History Graph

Search for Another Location

Airport or City:

Trip Planner

Search our weather history database for the weather conditions in past years. The results will help you decide how hot, cold, wet, or windy it might be!

Date:

Astronomy

Jan. 25, 2013 Rise Set
Actual Time 7:32 AM MST 5:50 PM MST
Civil Twilight 7:05 AM MST 6:17 PM MST
Nautical Twilight 6:34 AM MST 6:47 PM MST
Astronomical Twilight 6:04 AM MST 7:18 PM MST
Moon 4:50 PM MST (1/25) 6:14 AM MST (1/25)
Length of Visible Light 11h 11m
Length of Day
10h 17m
Waxing Gibbous, 98% of the Moon is Illuminated
Jan 25
Waxing Gibbous
Jan 26
Full
Feb 3
Last Quarter
Feb 10
New
Feb 17
First Quarter

Hourly Weather History & Observations

Time (MST) Temp. Windchill Dew Point Humidity Pressure Visibility Wind Dir Wind Speed Gust Speed Precip Events Conditions
12:15 AM 39.2 °F - 37.4 °F 93% 30.36 in 10.0 mi Calm Calm - N/A   Mostly Cloudy
12:35 AM 39.2 °F 37.0 °F 37.4 °F 93% 30.36 in 10.0 mi SE 3.5 mph - N/A   Overcast
12:55 AM 39.2 °F 35.0 °F 37.4 °F 93% 30.36 in 10.0 mi SSE 5.8 mph - N/A   Overcast
1:15 AM 39.2 °F 37.0 °F 37.4 °F 93% 30.36 in 10.0 mi SSE 3.5 mph - N/A   Overcast
1:35 AM 39.2 °F 35.9 °F 39.2 °F 100% 30.36 in 10.0 mi SSE 4.6 mph - N/A   Overcast
1:55 AM 39.2 °F 35.9 °F 39.2 °F 100% 30.36 in 10.0 mi SSE 4.6 mph - N/A   Overcast
2:15 AM 39.2 °F - 37.4 °F 93% 30.36 in 7.0 mi Calm Calm - N/A   Overcast
2:35 AM 39.2 °F - 39.2 °F 100% 30.36 in 4.0 mi Calm Calm - N/A   Overcast
2:55 AM 39.2 °F - 37.4 °F 93% 30.37 in 10.0 mi Calm Calm - N/A   Overcast
3:15 AM 39.2 °F - 39.2 °F 100% 30.37 in 8.0 mi Calm Calm - N/A   Overcast
3:35 AM 39.2 °F 37.0 °F 37.4 °F 93% 30.36 in 10.0 mi East 3.5 mph - N/A   Overcast
3:55 AM 39.2 °F - 37.4 °F 93% 30.37 in 10.0 mi Calm Calm - N/A   Overcast
4:15 AM 39.2 °F - 37.4 °F 93% 30.37 in 9.0 mi Calm Calm - N/A   Overcast
4:35 AM 39.2 °F 37.0 °F 37.4 °F 93% 30.36 in 5.0 mi SE 3.5 mph - N/A   Overcast
4:55 AM 39.2 °F 37.0 °F 37.4 °F 93% 30.35 in 7.0 mi ESE 3.5 mph - N/A   Overcast
5:15 AM 39.2 °F 37.0 °F 37.4 °F 93% 30.35 in 10.0 mi ESE 3.5 mph - N/A   Overcast
5:35 AM 39.2 °F 35.9 °F 37.4 °F 93% 30.35 in 10.0 mi SE 4.6 mph - N/A   Overcast
5:55 AM 39.2 °F 35.9 °F 37.4 °F 93% 30.35 in 10.0 mi SE 4.6 mph - N/A   Overcast
6:15 AM 39.2 °F 35.0 °F 37.4 °F 93% 30.35 in 10.0 mi SSE 5.8 mph - N/A   Overcast
6:35 AM 39.2 °F 34.2 °F 37.4 °F 93% 30.36 in 10.0 mi SSE 6.9 mph - N/A   Overcast
6:55 AM 37.4 °F 33.8 °F 37.4 °F 100% 30.36 in 10.0 mi SE 4.6 mph - N/A   Overcast
7:15 AM 39.2 °F 35.0 °F 37.4 °F 93% 30.36 in 10.0 mi SE 5.8 mph - N/A   Overcast
7:35 AM 37.4 °F 33.8 °F 37.4 °F 100% 30.36 in 10.0 mi SE 4.6 mph - N/A   Overcast
7:55 AM 39.2 °F 35.9 °F 37.4 °F 93% 30.36 in 10.0 mi SSE 4.6 mph - N/A   Overcast
8:15 AM 39.2 °F 37.0 °F 37.4 °F 93% 30.36 in 9.0 mi ESE 3.5 mph - N/A   Overcast
8:35 AM 39.2 °F 33.6 °F 37.4 °F 93% 30.36 in 9.0 mi SSE 8.1 mph - N/A   Overcast
8:55 AM 39.2 °F 35.0 °F 37.4 °F 93% 30.36 in 10.0 mi SE 5.8 mph - N/A   Overcast
9:15 AM 39.2 °F 34.2 °F 37.4 °F 93% 30.36 in 10.0 mi SE 6.9 mph - N/A   Overcast
9:35 AM 39.2 °F 34.2 °F 39.2 °F 100% 30.37 in 10.0 mi SE 6.9 mph - N/A   Overcast
9:55 AM 41.0 °F 35.8 °F 39.2 °F 93% 30.37 in 10.0 mi SE 8.1 mph - N/A   Overcast
10:15 AM 41.0 °F 35.2 °F 39.2 °F 93% 30.38 in 10.0 mi SE 9.2 mph - N/A   Overcast
10:35 AM 41.0 °F 35.8 °F 39.2 °F 93% 30.38 in 10.0 mi SE 8.1 mph - N/A   Overcast
10:55 AM 42.8 °F 38.6 °F 39.2 °F 87% 30.38 in 10.0 mi SE 6.9 mph - N/A   Overcast
11:15 AM 44.6 °F 40.7 °F 39.2 °F 81% 30.38 in 10.0 mi SE 6.9 mph - N/A   Overcast
11:35 AM 44.6 °F 40.7 °F 41.0 °F 87% 30.37 in 10.0 mi SE 6.9 mph - N/A   Mostly Cloudy
11:55 AM 46.4 °F 43.5 °F 39.2 °F 76% 30.35 in 10.0 mi ESE 5.8 mph - N/A   Mostly Cloudy
12:15 PM 48.2 °F - 39.2 °F 71% 30.33 in 10.0 mi SSE 5.8 mph - N/A   Mostly Cloudy
12:35 PM 50.0 °F - 39.2 °F 66% 30.32 in 10.0 mi SSE 4.6 mph - N/A   Scattered Clouds
12:55 PM 50.0 °F - 37.4 °F 62% 30.31 in 10.0 mi WSW 4.6 mph - N/A   Mostly Cloudy
1:15 PM 50.0 °F - 37.4 °F 62% 30.30 in 10.0 mi WSW 4.6 mph - N/A   Mostly Cloudy
1:35 PM 50.0 °F - 37.4 °F 62% 30.29 in 10.0 mi WSW 8.1 mph - N/A   Mostly Cloudy
1:55 PM 50.0 °F - 37.4 °F 62% 30.29 in 10.0 mi West 5.8 mph - N/A   Mostly Cloudy
2:15 PM 50.0 °F - 37.4 °F 62% 30.28 in 10.0 mi West 5.8 mph - N/A   Overcast
2:35 PM 50.0 °F - 39.2 °F 66% 30.28 in 10.0 mi WSW 5.8 mph - N/A   Mostly Cloudy
2:55 PM 48.2 °F - 39.2 °F 71% 30.28 in 10.0 mi WNW 5.8 mph - N/A   Overcast
3:15 PM 48.2 °F - 41.0 °F 76% 30.28 in 10.0 mi WNW 4.6 mph - N/A   Overcast
3:35 PM 48.2 °F - 41.0 °F 76% 30.27 in 10.0 mi WNW 4.6 mph - N/A   Overcast
3:55 PM 48.2 °F - 41.0 °F 76% 30.27 in 10.0 mi Calm Calm - N/A   Overcast
4:15 PM 46.4 °F - 41.0 °F 81% 30.27 in 10.0 mi Calm Calm - N/A   Overcast
4:35 PM 46.4 °F - 41.0 °F 81% 30.27 in 10.0 mi North - - N/A   Overcast
4:55 PM 46.4 °F - 41.0 °F 81% 30.27 in 10.0 mi Calm Calm - N/A   Overcast
5:15 PM 44.6 °F - 41.0 °F 87% 30.26 in 10.0 mi Calm Calm - N/A   Overcast
5:35 PM 44.6 °F - 39.2 °F 81% 30.26 in 10.0 mi Calm Calm - N/A   Overcast
5:55 PM 44.6 °F - 39.2 °F 81% 30.26 in 10.0 mi Calm Calm - N/A   Overcast
6:15 PM 44.6 °F 43.1 °F 39.2 °F 81% 30.26 in 10.0 mi SSE 3.5 mph - N/A   Overcast
6:35 PM 42.8 °F 41.1 °F 37.4 °F 81% 30.27 in 10.0 mi SSE 3.5 mph - N/A   Overcast
6:55 PM 42.8 °F 41.1 °F 37.4 °F 81% 30.26 in 10.0 mi South 3.5 mph - N/A   Overcast
7:15 PM 41.0 °F 39.0 °F 37.4 °F 87% 30.26 in 7.0 mi SE 3.5 mph - N/A   Overcast
7:35 PM 41.0 °F 38.0 °F 39.2 °F 93% 30.26 in 10.0 mi SSE 4.6 mph - N/A   Overcast
7:55 PM 39.2 °F 35.0 °F 37.4 °F 93% 30.25 in 10.0 mi ESE 5.8 mph - N/A   Overcast
8:15 PM 41.0 °F 36.4 °F 39.2 °F 93% 30.25 in 5.0 mi SE 6.9 mph - N/A   Overcast
8:35 PM 41.0 °F 37.1 °F 39.2 °F 93% 30.25 in 8.0 mi South 5.8 mph - 0.01 in   Overcast
8:55 PM 41.0 °F 36.4 °F 39.2 °F 93% 30.25 in 6.0 mi SSE 6.9 mph - 0.01 in   Overcast
9:15 PM 41.0 °F 39.0 °F 39.2 °F 93% 30.25 in 5.0 mi SSE 3.5 mph - 0.01 in   Overcast
9:35 PM 39.2 °F 34.2 °F 39.2 °F 100% 30.24 in 5.0 mi ESE 6.9 mph - 0.02 in   Mostly Cloudy
9:55 PM 39.2 °F 33.0 °F 39.2 °F 100% 30.24 in 5.0 mi SE 9.2 mph - 0.03 in   Overcast
10:15 PM 39.2 °F 33.6 °F 39.2 °F 100% 30.24 in 5.0 mi SE 8.1 mph - 0.03 in   Overcast
10:35 PM 39.2 °F 33.6 °F 39.2 °F 100% 30.24 in 6.0 mi SE 8.1 mph - 0.06 in   Overcast
10:55 PM 39.2 °F 33.6 °F 39.2 °F 100% 30.24 in 5.0 mi SE 8.1 mph - 0.09 in   Overcast
11:15 PM 39.2 °F 35.0 °F 39.2 °F 100% 30.23 in 3.0 mi SSE 5.8 mph - 0.04 in   Overcast
11:35 PM 39.2 °F 35.0 °F 39.2 °F 100% 30.23 in 4.0 mi SSE 5.8 mph - 0.06 in   Overcast
11:55 PM 39.2 °F 35.9 °F 39.2 °F 100% 30.23 in 5.0 mi ESE 4.6 mph - 0.10 in   Overcast